Time,TemperatureF,DewpointF,PressureIn,WindDirection,WindDirectionDegrees,WindSpeedMPH,WindSpeedGustMPH,Humidity,HourlyPrecipIn,Conditions,Clouds,dailyrainin,SolarRadiationWatts/m^2,SoftwareType,DateUTC
2013-04-14 00:00:00,75.8,71.3,29.87,WNW,284,0.0,0.0,86,0.00,,,0.00,0,Wunderground v.1.15,2013-04-14 04:00:00,
2013-04-14 00:05:00,75.8,71.3,29.87,WNW,285,0.0,0.0,86,0.00,,,0.00,0,Wunderground v.1.15,2013-04-14 04:05:00,
2013-04-14 00:10:00,75.8,71.3,29.87,WNW,284,0.0,0.0,86,0.00,,,0.00,0,Wunderground v.1.15,2013-04-14 04:10:00,
2013-04-14 00:15:00,75.6,71.1,29.87,WNW,284,0.0,0.0,86,0.00,,,0.00,0,Wunderground v.1.15,2013-04-14 04:15:00,
2013-04-14 00:20:00,75.6,71.5,29.87,WNW,284,0.0,0.0,87,0.00,,,0.00,0,Wunderground v.1.15,2013-04-14 04:20:00,
2013-04-14 00:25:00,75.6,71.5,29.87,WNW,284,0.0,0.0,87,0.00,,,0.00,0,Wunderground v.1.15,2013-04-14 04:25:00,
2013-04-14 00:30:00,75.6,71.5,29.88,WNW,284,0.0,0.0,87,0.00,,,0.00,0,Wunderground v.1.15,2013-04-14 04:30:00,
2013-04-14 00:40:00,75.6,71.8,29.88,WNW,284,0.0,0.0,88,0.00,,,0.00,0,Wunderground v.1.15,2013-04-14 04:40:00,
2013-04-14 00:45:00,75.6,71.8,29.87,WNW,284,0.0,0.0,88,0.00,,,0.00,0,Wunderground v.1.15,2013-04-14 04:45:00,
2013-04-14 00:50:00,75.6,71.8,29.87,WNW,284,0.0,0.0,88,0.00,,,0.00,0,Wunderground v.1.15,2013-04-14 04:50:00,
2013-04-14 00:55:00,75.6,71.8,29.87,WNW,284,0.0,0.0,88,0.00,,,0.00,0,Wunderground v.1.15,2013-04-14 04:55:00,
2013-04-14 01:00:00,75.6,71.8,29.87,WNW,284,0.0,0.0,88,0.00,,,0.00,0,Wunderground v.1.15,2013-04-14 05:00:00,
2013-04-14 01:10:00,75.6,71.8,29.87,WNW,284,0.0,0.0,88,0.00,,,0.00,0,Wunderground v.1.15,2013-04-14 05:10:00,
2013-04-14 01:15:00,75.6,71.8,29.87,WNW,284,0.0,0.0,88,0.00,,,0.00,0,Wunderground v.1.15,2013-04-14 05:15:00,
2013-04-14 01:20:00,75.4,71.6,29.87,WNW,284,0.0,0.0,88,0.00,,,0.00,0,Wunderground v.1.15,2013-04-14 05:20:00,
2013-04-14 01:25:00,75.6,72.1,29.87,WNW,284,0.0,0.0,89,0.00,,,0.00,0,Wunderground v.1.15,2013-04-14 05:25:00,
2013-04-14 01:30:00,75.6,72.1,29.86,WNW,285,0.0,0.0,89,0.00,,,0.00,0,Wunderground v.1.15,2013-04-14 05:30:00,
2013-04-14 01:35:00,75.6,72.1,29.86,WNW,284,0.0,0.0,89,0.00,,,0.00,0,Wunderground v.1.15,2013-04-14 05:35:00,
2013-04-14 01:45:00,75.6,72.1,29.86,WNW,284,0.0,0.0,89,0.00,,,0.00,0,Wunderground v.1.15,2013-04-14 05:45:00,
2013-04-14 12:00:00,88.0,72.9,29.88,NNW,333,6.0,10.0,61,0.00,,,0.00,961,Wunderground v.1.15,2013-04-14 16:00:00,
2013-04-14 12:10:00,88.2,72.6,29.88,North,4,5.0,8.0,60,0.00,,,0.00,962,Wunderground v.1.15,2013-04-14 16:10:00,
2013-04-14 12:15:00,88.6,72.4,29.88,NNW,328,5.0,8.0,59,0.00,,,0.00,985,Wunderground v.1.15,2013-04-14 16:15:00,
2013-04-14 12:20:00,88.8,72.1,29.88,NNW,329,5.0,5.0,58,0.00,,,0.00,1031,Wunderground v.1.15,2013-04-14 16:20:00,
2013-04-14 12:25:00,88.8,72.1,29.88,NW,316,5.0,10.0,58,0.00,,,0.00,839,Wunderground v.1.15,2013-04-14 16:25:00,
2013-04-14 12:30:00,88.8,73.1,29.88,NNW,336,6.0,6.0,60,0.00,,,0.00,1021,Wunderground v.1.15,2013-04-14 16:30:00,
2013-04-14 12:40:00,88.8,72.1,29.88,NW,309,5.0,10.0,58,0.00,,,0.00,1005,Wunderground v.1.15,2013-04-14 16:40:00,
2013-04-14 12:45:00,89.0,72.3,29.87,North,0,4.0,10.0,58,0.00,,,0.00,950,Wunderground v.1.15,2013-04-14 16:45:00,
2013-04-14 12:50:00,89.0,71.8,29.87,WNW,298,4.0,8.0,57,0.00,,,0.00,1012,Wunderground v.1.15,2013-04-14 16:50:00,
2013-04-14 12:55:00,88.6,71.4,29.87,North,356,5.0,8.0,57,0.00,,,0.00,1012,Wunderground v.1.15,2013-04-14 16:55:00,
2013-04-14 13:00:00,89.0,71.3,29.87,NNW,340,4.0,5.0,56,0.00,,,0.00,941,Wunderground v.1.15,2013-04-14 17:00:00,
2013-04-14 13:10:00,89.3,71.0,29.87,WNW,302,5.0,5.0,55,0.00,,,0.00,996,Wunderground v.1.15,2013-04-14 17:10:00,
2013-04-14 13:20:00,89.9,72.1,29.87,North,359,5.0,7.0,56,0.00,,,0.00,1036,Wunderground v.1.15,2013-04-14 17:20:00,
2013-04-14 13:25:00,90.3,71.9,29.87,NW,320,5.0,7.0,55,0.00,,,0.00,1015,Wunderground v.1.15,2013-04-14 17:25:00,
2013-04-14 13:30:00,90.7,72.3,29.86,NW,320,4.0,6.0,55,0.00,,,0.00,1024,Wunderground v.1.15,2013-04-14 17:30:00,
2013-04-14 13:35:00,91.0,72.6,29.86,NE,38,4.0,7.0,55,0.00,,,0.00,1049,Wunderground v.1.15,2013-04-14 17:35:00,
2013-04-14 13:45:00,89.9,71.6,29.86,NW,326,6.0,6.0,55,0.00,,,0.00,1010,Wunderground v.1.15,2013-04-14 17:45:00,
2013-04-14 13:50:00,89.5,71.2,29.86,North,353,5.0,6.0,55,0.00,,,0.00,1008,Wunderground v.1.15,2013-04-14 17:50:00,
2013-04-14 13:55:00,89.3,71.5,29.86,NW,325,5.0,8.0,56,0.00,,,0.00,940,Wunderground v.1.15,2013-04-14 17:55:00,
2013-04-14 14:00:00,89.3,71.5,29.85,North,356,5.0,5.0,56,0.00,,,0.00,938,Wunderground v.1.15,2013-04-14 18:00:00,
2013-04-14 14:10:00,89.5,71.2,29.85,NNW,342,6.0,7.0,55,0.00,,,0.00,915,Wunderground v.1.15,2013-04-14 18:10:00,
2013-04-14 14:15:00,89.7,71.4,29.84,NW,311,5.0,7.0,55,0.00,,,0.00,999,Wunderground v.1.15,2013-04-14 18:15:00,
2013-04-14 14:20:00,90.1,70.1,29.84,NNW,335,5.0,5.0,52,0.00,,,0.00,926,Wunderground v.1.15,2013-04-14 18:20:00,
2013-04-14 14:25:00,89.9,71.0,29.84,North,359,5.0,5.0,54,0.00,,,0.00,933,Wunderground v.1.15,2013-04-14 18:25:00,
2013-04-14 14:30:00,89.9,72.1,29.83,NW,308,5.0,5.0,56,0.00,,,0.00,940,Wunderground v.1.15,2013-04-14 18:30:00,
2013-04-14 14:35:00,89.0,71.3,29.83,North,0,6.0,7.0,56,0.00,,,0.00,887,Wunderground v.1.15,2013-04-14 18:35:00,
2013-04-14 14:40:00,89.3,71.5,29.83,NNW,336,6.0,6.0,56,0.00,,,0.00,885,Wunderground v.1.15,2013-04-14 18:40:00,
2013-04-14 14:45:00,89.5,70.7,29.83,WNW,296,5.0,6.0,54,0.00,,,0.00,897,Wunderground v.1.15,2013-04-14 18:45:00,
2013-04-14 14:55:00,89.7,70.8,29.83,West,274,5.0,5.0,54,0.00,,,0.00,848,Wunderground v.1.15,2013-04-14 18:55:00,
2013-04-14 15:00:00,89.5,70.1,29.83,NW,322,6.0,6.0,53,0.00,,,0.00,639,Wunderground v.1.15,2013-04-14 19:00:00,
2013-04-14 15:10:00,89.0,70.7,29.83,NW,316,4.0,8.0,55,0.00,,,0.00,836,Wunderground v.1.15,2013-04-14 19:10:00,
2013-04-14 15:15:00,89.3,70.5,29.83,NW,313,4.0,8.0,54,0.00,,,0.00,815,Wunderground v.1.15,2013-04-14 19:15:00,
2013-04-14 15:20:00,89.3,70.5,29.83,North,353,4.0,6.0,54,0.00,,,0.00,804,Wunderground v.1.15,2013-04-14 19:20:00,
2013-04-14 15:30:00,89.9,71.6,29.82,NW,313,5.0,5.0,55,0.00,,,0.00,908,Wunderground v.1.15,2013-04-14 19:30:00,
2013-04-14 15:40:00,90.3,70.8,29.82,NNW,346,3.0,3.0,53,0.00,,,0.00,232,Wunderground v.1.15,2013-04-14 19:40:00,
2013-04-14 15:45:00,89.5,71.2,29.82,NNW,329,3.0,5.0,55,0.00,,,0.00,197,Wunderground v.1.15,2013-04-14 19:45:00,
2013-04-14 15:50:00,88.8,71.1,29.82,North,0,4.0,6.0,56,0.00,,,0.00,199,Wunderground v.1.15,2013-04-14 19:50:00,
2013-04-14 15:55:00,88.2,71.0,29.82,WNW,284,5.0,6.0,57,0.00,,,0.00,232,Wunderground v.1.15,2013-04-14 19:55:00,
2013-04-14 16:00:00,88.0,70.9,29.82,North,0,6.0,6.0,57,0.00,,,0.00,779,Wunderground v.1.15,2013-04-14 20:00:00,
2013-04-14 16:10:00,87.6,71.0,29.82,NW,326,5.0,5.0,58,0.00,,,0.00,141,Wunderground v.1.15,2013-04-14 20:10:00,
2013-04-14 16:15:00,87.0,70.9,29.81,NNW,329,5.0,7.0,59,0.00,,,0.00,158,Wunderground v.1.15,2013-04-14 20:15:00,
2013-04-14 16:20:00,87.2,71.6,29.81,NW,325,4.0,4.0,60,0.00,,,0.00,709,Wunderground v.1.15,2013-04-14 20:20:00,
2013-04-14 16:25:00,87.4,71.3,29.81,North,1,3.0,4.0,59,0.00,,,0.00,290,Wunderground v.1.15,2013-04-14 20:25:00,
2013-04-14 16:35:00,87.2,71.1,29.80,NNW,336,5.0,5.0,59,0.00,,,0.00,204,Wunderground v.1.15,2013-04-14 20:35:00,
2013-04-14 16:40:00,87.0,70.9,29.80,North,349,4.0,5.0,59,0.00,,,0.00,192,Wunderground v.1.15,2013-04-14 20:40:00,
2013-04-14 16:50:00,87.0,70.9,29.81,WNW,299,4.0,5.0,59,0.00,,,0.00,151,Wunderground v.1.15,2013-04-14 20:50:00,
2013-04-14 16:55:00,86.7,71.2,29.81,NNW,336,5.0,5.0,60,0.00,,,0.00,618,Wunderground v.1.15,2013-04-14 20:55:00,
2013-04-14 17:00:00,87.2,71.1,29.80,NE,34,3.0,6.0,59,0.00,,,0.00,241,Wunderground v.1.15,2013-04-14 21:00:00,
2013-04-14 17:10:00,87.0,70.4,29.80,North,0,4.0,4.0,58,0.00,,,0.00,232,Wunderground v.1.15,2013-04-14 21:10:00,
2013-04-14 17:15:00,87.2,70.6,29.81,North,0,3.0,4.0,58,0.00,,,0.00,596,Wunderground v.1.15,2013-04-14 21:15:00,
2013-04-14 17:25:00,87.6,72.0,29.81,WNW,296,3.0,6.0,60,0.00,,,0.00,164,Wunderground v.1.15,2013-04-14 21:25:00,
2013-04-14 17:30:00,87.2,72.1,29.81,WNW,302,3.0,7.0,61,0.00,,,0.00,399,Wunderground v.1.15,2013-04-14 21:30:00,
2013-04-14 17:35:00,87.0,72.4,29.81,North,354,4.0,7.0,62,0.00,,,0.00,109,Wunderground v.1.15,2013-04-14 21:35:00,
2013-04-14 17:40:00,86.3,72.2,29.81,NNW,337,4.0,4.0,63,0.00,,,0.00,109,Wunderground v.1.15,2013-04-14 21:40:00,
2013-04-14 17:50:00,85.5,71.9,29.81,NW,315,3.0,3.0,64,0.00,,,0.00,130,Wunderground v.1.15,2013-04-14 21:50:00,
2013-04-14 17:55:00,85.1,71.5,29.81,North,8,4.0,4.0,64,0.00,,,0.00,84,Wunderground v.1.15,2013-04-14 21:55:00,
2013-04-14 18:00:00,84.9,71.8,29.82,NW,320,3.0,6.0,65,0.00,,,0.00,77,Wunderground v.1.15,2013-04-14 22:00:00,
2013-04-14 18:10:00,84.3,71.7,29.82,NNW,347,3.0,3.0,66,0.00,,,0.00,83,Wunderground v.1.15,2013-04-14 22:10:00,
2013-04-14 18:15:00,84.3,72.1,29.82,NW,305,3.0,7.0,67,0.00,,,0.00,236,Wunderground v.1.15,2013-04-14 22:15:00,